Tracking 29892 objects as of 21-Nov-2024
HD Live streaming from Space Station
objects crossing your sky now

SL-3 DEB

Track SL-3 DEB now!
10-day predictions


NORAD ID: 14229
Int'l Code: 1983-075D
Perigee: 534.7 km
Apogee: 579.7 km
Inclination: 97.8 °
Period: 95.7 minutes
Semi major axis: 6928 km
RCS: 0.0149 m2 (small)
Launch date: July 24, 1983
Source: Commonwealth of Independent States (former USSR) (CIS)
Launch site: TYURATAM MISSILE AND SPACE COMPLEX (TTMTR)

Note: This is SATELLITE DEBRIS
Your satellite tracking list
Your tracking list is empty




NASA's NSSDC Master Catalog

Two Line Element Set (TLE):
1 14229U 83075D   24326.14545736  .00004780  00000-0  33333-3 0  9990
2 14229  97.8386 298.0565 0032461 112.1838  18.5253 15.05463801245363
Source of the keplerian elements: AFSPC